Terminal Aerodrome Forecast
Issued by NWS Mt. Holly, NJ

Home | Current Version | Previous Version | Text Only | Print | Product List | Glossary On
Versions: 1 2 3 4 5 6 7 8 9 10 11 12 13 14 15 16 17 18 19 20 21 22 23 24 25 26 27 28 29 30 31 32 33 34 35 36 37 38 39 40 41 42 43 44 45 46 47 48 49 50
000
FTAK31 PANC 031739
TAFABE
TAF
PABE 031739Z 0318/0418 34010KT P6SM VCFG SCT002
      TEMPO 0318/0320 1/2SM -DZ FG OVC002
     FM032000 36015KT P6SM OVC015
     FM032200 36010KT P6SM SCT025
     FM040800 33008KT P6SM BKN015=

USA.gov is the U.S. government's official web portal to all federal, state and local government web resources and services.